Pagrindinis puslapis
METAR-TAF:

METAR-TAF

Oro uostai :

Oro pajėgų bazė

Meppen, Vokietija

platuma: 52-43-24N, ilguma: 007-19-35E, Aukštis: 21 m

Dabartinis oras

Ataskaita buvo paskelbta 43 minutes, ne 09:20 UTC
Vėjas 8 kt iš Rytų
Temperatūra 18°C
Drėgmė 39%
Slėgis 1025 hPa

METAR: ETWM 310920Z AUTO 08008KT //// // ////// 18/04 Q1025 ///

Laikas: 12:03 (10:03 UTC)


TAF: trūkstamas

Orai ataskaitas ir orų prognozės (METAR, TAF).

turimą stotys yra geltonos ir raudonos taškus žemėlapyje.

Perkelti pele per norėdami pamatyti stoties vardą.

Tada spustelėkite, norėdami matyti oro stebėjimo ir prognozės.

Norėdami pakeisti žemėlapį: spustelėkite ant žalios mygtukų su juodo kryžiaus žemyn,; žalią mygtuką su brūkšneliu, jei norite nutolinti; arba žalių rodyklių gretimoms žemėlapius.


METAR-TAF: